Middletown, PA

10:56 AM EDT on June 25, 2017 (GMT -0400)
Harrisburg International

Weather History for KMDT - December, 2013

Change the Weather History Date:

Monday, December 23, 2013

  Actual Average Record
Temperature  
Mean Temperature 48 °F 32 °F  
Max Temperature 60 °F 39 °F 65 °F (1990)
Min Temperature 35 °F 25 °F -8 °F (1960)
Degree Days  
Heating Degree Days 17 33  
Month to date heating degree days 686 694  
Since 1 July heating degree days 1739 1733  
Cooling Degree Days 0 0  
Month to date cooling degree days 0 0  
Year to date cooling degree days 1105 1002  
Moisture  
Dew Point 48 °F    
Average Humidity 77    
Maximum Humidity 100    
Minimum Humidity 54    
Precipitation  
Precipitation 0.39 in 0.11 in 0.97 in (2015)
Month to date precipitation 2.86 2.50  
Year to date precipitation 41.75 40.01  
Snow  
Snow 0.00 in 0.20 in 10.10 in (1963)
Month to date snowfall 7.7 3.5  
Since 1 July snowfall 7.7 4.1  
Snow Depth 0.00 in    
Sea Level Pressure  
Sea Level Pressure 30.00 in    
Wind  
Wind Speed 8 mph (NW)    
Max Wind Speed 25 mph    
Max Gust Speed 33 mph    
Visibility 4 miles    
Events Fog , Rain    
T = Trace of Precipitation, MM = Missing Value Source: NWS Daily Summary

Daily Weather History Graph

Daily Weather History Graph

Search for Another Location

Airport or City:

Trip Planner

Search our weather history database for the weather conditions in past years. The results will help you decide how hot, cold, wet, or windy it might be!

Date:

Astronomy

Dec. 23, 2013 Rise Set
Actual Time 7:27 AM EST 4:45 PM EST
Civil Twilight 6:56 AM EST 5:16 PM EST
Nautical Twilight 6:22 AM EST 5:50 PM EST
Astronomical Twilight 5:49 AM EST 6:23 PM EST
Moon 10:53 PM EST (12/23) 10:50 AM EST (12/23)
Length of Visible Light 10h 20m
Length of Day
9h 18m
Waning Gibbous, 68% of the Moon is Illuminated
Dec 23
Waning Gibbous
Dec 25
Last Quarter
Jan 1
New
Jan 7
First Quarter
Jan 15
Full

Hourly Weather History & Observations

Time (EST) Temp. Windchill Dew Point Humidity Pressure Visibility Wind Dir Wind Speed Gust Speed Precip Events Conditions
12:56 AM 57.0 °F - 53.1 °F 87% 29.95 in 10.0 mi SSW 5.8 mph - N/A   Overcast
1:56 AM 55.9 °F - 53.1 °F 90% 29.96 in 10.0 mi Variable 3.5 mph - N/A   Overcast
2:56 AM 53.1 °F - 52.0 °F 96% 29.96 in 5.0 mi Calm Calm - 0.00 in Rain Light Rain
3:23 AM 51.8 °F - 50.0 °F 94% 29.96 in 1.5 mi Calm Calm - 0.00 in Rain Light Rain
3:29 AM 51.8 °F - 50.0 °F 94% 29.96 in 4.0 mi SE 5.8 mph - 0.00 in Rain Light Rain
3:56 AM 55.9 °F - 55.0 °F 97% 29.96 in 5.0 mi Calm Calm - 0.01 in Rain Light Rain
4:56 AM 54.0 °F - 53.1 °F 97% 29.95 in 3.0 mi SE 3.5 mph - 0.05 in Rain Rain
5:33 AM 53.6 °F - 53.6 °F 100% 29.95 in 1.2 mi SSE 3.5 mph - 0.05 in Rain Rain
5:43 AM 53.6 °F - 53.6 °F 100% 29.93 in 0.2 mi East 4.6 mph - 0.06 in Fog , Rain Rain
5:47 AM 53.6 °F - 53.6 °F 100% 29.92 in 3.0 mi East 6.9 mph - 0.07 in Rain Light Rain
5:56 AM 55.0 °F - 54.0 °F 96% 29.92 in 3.0 mi ESE 6.9 mph - 0.08 in Rain Light Rain
6:03 AM 55.4 °F - 53.6 °F 94% 29.93 in 1.2 mi SSE 3.5 mph - 0.01 in Rain Light Rain
6:05 AM 53.6 °F - 51.8 °F 94% 29.93 in 0.5 mi SSE 5.8 mph - 0.01 in Fog , Rain Light Rain
6:21 AM 53.6 °F - 53.6 °F 100% 29.94 in 1.0 mi Calm Calm - 0.04 in Rain Light Rain
6:29 AM 53.6 °F - 53.6 °F 100% 29.95 in 0.5 mi Calm Calm - 0.06 in Fog , Rain Rain
6:38 AM 55.4 °F - 53.6 °F 94% 29.95 in 1.0 mi Calm Calm - 0.10 in Rain Rain
6:44 AM 53.6 °F - 53.6 °F 100% 29.95 in 0.5 mi Calm Calm - 0.12 in Fog , Rain Rain
6:53 AM 55.4 °F - 53.6 °F 94% 29.96 in 1.0 mi Calm Calm - 0.14 in Rain Light Rain
6:56 AM 55.9 °F - 55.0 °F 97% 29.96 in 1.8 mi Calm Calm - 0.14 in Rain Rain
7:03 AM 55.4 °F - 53.6 °F 94% 29.95 in 0.8 mi Calm Calm - 0.01 in Rain Rain
7:14 AM 55.4 °F - 53.6 °F 94% 29.92 in 1.0 mi ESE 11.5 mph - 0.03 in Rain Light Rain
7:21 AM 55.4 °F - 53.6 °F 94% 29.93 in 0.8 mi East 5.8 mph - 0.04 in Rain Light Rain
7:30 AM 53.6 °F - 53.6 °F 100% 29.95 in 1.8 mi Calm Calm - 0.05 in Rain Light Rain
7:38 AM 55.4 °F - 55.4 °F 100% 29.95 in 2.0 mi Calm Calm - 0.05 in Rain Light Rain
7:46 AM 55.4 °F - 55.4 °F 100% 29.94 in 6.0 mi Calm Calm - 0.06 in Rain Light Rain
7:54 AM 55.4 °F - 53.6 °F 94% 29.93 in 1.2 mi Calm Calm - 0.06 in Rain Light Rain
7:56 AM 54.0 °F - 54.0 °F 100% 29.94 in 1.0 mi Calm Calm - 0.06 in Rain Light Rain
8:01 AM 53.6 °F - 53.6 °F 100% 29.94 in 0.5 mi Calm Calm - 0.00 in Fog , Rain Light Rain
8:10 AM 51.8 °F - 51.8 °F 100% 29.94 in 0.2 mi WSW 3.5 mph - 0.00 in Fog , Rain Light Rain
8:41 AM 53.6 °F - 53.6 °F 100% 29.95 in 1.0 mi Calm Calm - 0.00 in Rain Light Rain
8:45 AM 55.4 °F - 53.6 °F 94% 29.94 in 3.0 mi North 3.5 mph - 0.00 in Rain Light Rain
8:56 AM 55.9 °F - 55.0 °F 97% 29.95 in 10.0 mi Calm Calm - 0.00 in Rain Light Rain
9:07 AM 53.6 °F - 53.6 °F 100% 29.96 in 0.8 mi WNW 3.5 mph - 0.00 in   Overcast
9:14 AM 53.6 °F - 51.8 °F 94% 29.95 in 0.5 mi Calm Calm - 0.00 in Fog , Rain Light Rain
9:19 AM 53.6 °F - 51.8 °F 94% 29.96 in 1.0 mi Calm Calm - 0.01 in Rain Light Rain
9:28 AM 51.8 °F - 51.8 °F 100% 29.95 in 0.8 mi WNW 5.8 mph - 0.01 in Rain Light Rain
9:30 AM 51.8 °F - 50.0 °F 94% 29.97 in 0.5 mi WNW 15.0 mph 18.4 mph 0.01 in Fog , Rain Light Rain
9:40 AM 51.8 °F - 51.8 °F 100% 29.98 in 1.0 mi WNW 12.7 mph - 0.03 in Rain Light Rain
9:50 AM 51.8 °F - 50.0 °F 94% 29.99 in 2.0 mi NW 10.4 mph - 0.03 in Rain Light Rain
9:56 AM 52.0 °F - 51.1 °F 97% 30.00 in 2.5 mi WNW 10.4 mph - 0.03 in Rain Light Rain
10:03 AM 51.8 °F - 51.8 °F 100% 29.99 in 2.5 mi NW 10.4 mph - 0.00 in Rain Light Rain
10:11 AM 51.8 °F - 51.8 °F 100% 29.99 in 5.0 mi NW 8.1 mph - 0.01 in Rain Light Rain
10:18 AM 51.8 °F - 51.8 °F 100% 29.99 in 9.0 mi NW 6.9 mph - 0.01 in Rain Light Rain
10:56 AM 53.1 °F - 51.1 °F 93% 30.01 in 10.0 mi WNW 4.6 mph - 0.01 in Rain Light Rain
11:56 AM 53.1 °F - 51.1 °F 93% 29.98 in 6.0 mi NNW 3.5 mph - 0.01 in Rain Light Rain
12:56 PM 53.1 °F - 46.9 °F 80% 30.00 in 10.0 mi NW 6.9 mph - 0.00 in   Overcast
1:08 PM 53.6 °F - 46.4 °F 77% 29.99 in 10.0 mi NNW 10.4 mph 17.3 mph 0.00 in Rain Light Rain
1:42 PM 48.2 °F - 42.8 °F 82% 30.00 in 10.0 mi NW 6.9 mph - 0.00 in Rain Light Rain
1:56 PM 48.9 °F - 42.1 °F 77% 30.02 in 10.0 mi NW 10.4 mph - 0.00 in   Overcast
2:56 PM 48.0 °F - 41.0 °F 77% 30.06 in 10.0 mi NW 9.2 mph - N/A   Overcast
3:56 PM 48.0 °F - 37.9 °F 68% 30.09 in 10.0 mi NW 19.6 mph 27.6 mph N/A   Overcast
4:56 PM 44.1 °F 36.5 °F 32.0 °F 63% 30.14 in 10.0 mi NW 17.3 mph 25.3 mph N/A   Overcast
5:56 PM 42.1 °F 33.3 °F 30.9 °F 65% 30.17 in 10.0 mi NW 19.6 mph 28.8 mph N/A   Overcast
6:56 PM 39.9 °F 31.8 °F 27.0 °F 60% 30.19 in 10.0 mi NW 15.0 mph - N/A   Mostly Cloudy
7:56 PM 37.9 °F 31.5 °F 24.1 °F 57% 30.22 in 10.0 mi NNW 9.2 mph 19.6 mph N/A   Mostly Cloudy
8:56 PM 37.9 °F 31.5 °F 23.0 °F 55% 30.21 in 10.0 mi NNW 9.2 mph - N/A   Mostly Cloudy
9:56 PM 37.0 °F 28.9 °F 23.0 °F 57% 30.22 in 10.0 mi NNW 12.7 mph - N/A   Mostly Cloudy
10:56 PM 36.0 °F 26.7 °F 23.0 °F 59% 30.23 in 10.0 mi NW 15.0 mph - N/A   Mostly Cloudy
11:56 PM 36.0 °F 30.3 °F 21.9 °F 57% 30.23 in 10.0 mi NW 6.9 mph - N/A   Mostly Cloudy